Simultaneous Nadir Overpasses (SNOs) Predictions

Prediction of SNOs between AQUA and NOAA-19 Satellite Orbit:

Table of predicted SNOs for the next 14.0 days since TLE Epoch: 5/21/2022
Index Date (AQUA) Time (AQUA) Lat,Lon (AQUA) SZA (AQUA ) Date (NOAA-19) Time (NOAA-19) Lat,Lon (NOAA-19) SZA (NOAA-19 ) Distance(km) Time Diff (sec)
1 05/21/2022 04:04:35 77.64, 102.24 57.91 05/21/2022 04:03:22 77.58, 101.76 57.91 13.59 73
2 05/21/2022 04:54:02 -77.70, -90.35 122.03 05/21/2022 04:54:18 -77.71, -90.30 122.03 1.56 16
3 05/23/2022 10:27:25 77.69, 6.35 57.53 05/23/2022 10:27:17 77.67, 6.33 57.51 2.49 8
4 05/23/2022 11:17:00 -78.09, 172.16 121.97 05/23/2022 11:18:04 -78.12, 176.11 122.21 90.56 64
5 05/25/2022 16:00:46 -77.66, 103.16 122.92 05/25/2022 16:00:13 -77.64, 103.05 122.91 2.83 33
6 05/25/2022 16:50:14 77.72, -89.48 57.16 05/25/2022 16:51:13 77.71, -89.36 57.12 3.17 59
7 05/27/2022 21:34:08 77.67,-160.21 56.72 05/27/2022 21:33:12 77.63,-160.19 56.70 3.95 56
8 05/27/2022 22:23:34 -77.67, 7.41 123.28 05/27/2022 22:24:08 -77.70, 7.44 123.27 3.40 34
9 05/30/2022 03:07:21 -77.32, -62.12 124.04 05/30/2022 03:06:15 -77.27, -65.11 123.86 73.32 66
10 05/30/2022 03:56:55 77.67, 104.10 56.37 05/30/2022 03:57:08 77.66, 104.05 56.37 1.62 13
11 06/01/2022 09:30:14 -77.63,-159.05 123.99 06/01/2022 09:30:02 -77.64,-159.20 123.97 3.72 12
12 06/01/2022 10:19:50 78.05, 6.68 56.54 06/01/2022 10:20:54 78.06, 10.38 56.30 85.15 64
13 06/03/2022 15:03:34 77.64, -62.43 55.75 06/03/2022 15:03:01 77.65, -62.30 55.76 3.40 33



Historial Predications of SNOs between AQUA and NOAA-19
